N0PB Weather Reports


Display with metric or nautical units.
time (UTC)temp
F
wind
direction
speed
MPH
gust
MPH
rain 1hr
in
rain 24hr
in
rain mn
in
humidity
%
barometer
mb
20260504174511 74 222 13.0 21.0 0.00 0.01 0.01 53 1000.8
20260504173008 74 216 10.0 18.0 0.00 0.01 0.01 53 1001.1
20260504171505 73 232 15.0 25.0 0.00 0.01 0.01 53 1001.3
20260504081501 59 143 2.0 5.0 0.00 0.00 0.00 77 1004.5
20260504044533 59 283 0.0 0.0 0.00 0.00 0.00 79 1006.7
20260504043031 60 283 0.0 0.0 0.00 0.00 0.00 76 1006.8
20260504041534 60 283 0.0 0.0 0.00 0.00 0.00 77 1006.7
20260504040029 60 283 0.0 0.0 0.00 0.00 0.00 77 1006.8
20260504034529 61 283 0.0 2.0 0.00 0.00 0.00 73 1007.0
20260504033029 61 283 2.0 3.0 0.00 0.00 0.00 72 1007.2
20260504031528 61 283 0.0 2.0 0.00 0.00 0.00 73 1007.0
20260504030028 61 283 0.0 2.0 0.00 0.00 0.00 71 1007.1
20260504024528 63 283 0.0 0.0 0.00 0.00 0.00 66 1006.9
20260504023027 63 283 0.0 0.0 0.00 0.00 0.00 66 1006.9
20260504021526 64 283 0.0 0.0 0.00 0.00 0.00 59 1006.8
20260504020025 64 283 0.0 1.0 0.00 0.00 0.00 61 1006.8
20260504014528 65 283 0.0 0.0 0.00 0.00 0.00 63 1006.9
20260504013025 67 283 0.0 1.0 0.00 0.00 0.00 59 1006.8
20260504011524 70 283 0.0 2.0 0.00 0.00 0.00 50 1006.9
20260504010024 71 283 1.0 3.0 0.00 0.00 0.00 49 1006.8
20260504004524 71 283 1.0 3.0 0.00 0.00 0.00 49 1006.8
20260504003022 72 283 2.0 3.0 0.00 0.00 0.00 48 1006.9
20260504001522 73 283 4.0 8.0 0.00 0.00 0.00 47 1006.9
20260504000020 73 289 5.0 11.0 0.00 0.00 0.00 47 1007.0
20260503234519 74 286 5.0 8.0 0.00 0.00 0.00 47 1007.0
20260503233028 74 281 4.0 10.0 0.00 0.00 0.00 48 1007.2
20260503231519 73 289 4.0 10.0 0.00 0.00 0.00 47 1007.2
20260503230016 73 295 8.0 12.0 0.00 0.00 0.00 47 1007.3
20260503224515 74 278 11.0 15.0 0.00 0.00 0.00 46 1007.3
20260503223015 75 256 11.0 15.0 0.00 0.00 0.00 46 1007.2
20260503221521 74 278 11.0 16.0 0.00 0.00 0.00 46 1007.3
20260503220013 74 281 10.0 16.0 0.00 0.00 0.00 47 1007.4
20260503214511 74 242 14.0 22.0 0.00 0.00 0.00 44 1007.4
20260503213006 74 253 10.0 16.0 0.00 0.00 0.00 47 1007.4
20260503211503 74 242 11.0 19.0 0.00 0.00 0.00 46 1007.7
20260503210104 74 240 13.0 23.0 0.00 0.00 0.00 48 1007.9
20260503204558 74 228 14.0 21.0 0.00 0.00 0.00 48 1008.0
20260503203058 73 244 16.0 23.0 0.00 0.00 0.00 46 1008.3
20260503201553 73 239 17.0 23.0 0.00 0.00 0.00 46 1008.4
20260503200056 73 239 20.0 26.0 0.00 0.00 0.00 49 1008.6
20260503194558 73 249 14.0 23.0 0.00 0.00 0.00 49 1008.8
20260503193047 72 274 20.0 28.0 0.00 0.00 0.00 46 1009.2
20260503191547 72 227 20.0 26.0 0.00 0.00 0.00 48 1009.2
20260503190043 72 236 16.0 24.0 0.00 0.00 0.00 52 1009.4
20260503184541 71 245 18.0 25.0 0.00 0.00 0.00 48 1009.6
20260503183040 71 224 17.0 26.0 0.00 0.00 0.00 51 1009.7
20260503181536 70 222 18.0 25.0 0.00 0.00 0.00 50 1009.9
20260503180035 70 236 17.0 27.0 0.00 0.00 0.00 49 1010.1